TimeEDT,TemperatureF,Dew PointF,Humidity,Sea Level PressureIn,VisibilityMPH,Wind Direction,Wind SpeedMPH,Gust SpeedMPH,PrecipitationIn,Events,Conditions,WindDirDegrees,DateUTC
12:14 AM,39.2,32.0,75,30.10,10.0,NNW,9.2,-,N/A,,Overcast,340,2012-11-03 04:14:00
12:35 AM,37.2,31.1,79,30.10,10.0,North,6.9,-,N/A,,Scattered Clouds,350,2012-11-03 04:35:00
12:54 AM,36.0,30.9,82,30.10,10.0,North,6.9,-,N/A,,Clear,360,2012-11-03 04:54:00
1:15 AM,34.3,30.2,85,30.11,10.0,NNW,3.5,-,N/A,,Clear,340,2012-11-03 05:15:00
1:35 AM,33.6,30.0,87,30.11,10.0,NW,3.5,-,N/A,,Clear,310,2012-11-03 05:35:00
1:54 AM,32.9,29.8,88,30.12,10.0,Calm,Calm,-,N/A,,Clear,0,2012-11-03 05:54:00
2:15 AM,31.3,29.1,92,30.12,10.0,Calm,Calm,-,N/A,,Clear,0,2012-11-03 06:15:00
2:34 AM,31.1,29.3,93,30.12,10.0,Calm,Calm,-,N/A,,Clear,0,2012-11-03 06:34:00
2:55 AM,31.6,29.3,91,30.13,10.0,Calm,Calm,-,N/A,,Clear,0,2012-11-03 06:55:00
3:15 AM,31.6,29.5,92,30.13,10.0,NW,3.5,-,N/A,,Clear,320,2012-11-03 07:15:00
3:34 AM,31.1,29.1,92,30.14,10.0,NW,3.5,-,N/A,,Clear,320,2012-11-03 07:34:00
3:55 AM,30.4,28.9,94,30.13,10.0,NNW,3.5,-,N/A,,Clear,340,2012-11-03 07:55:00
4:15 AM,30.6,28.8,93,30.14,10.0,Calm,Calm,-,N/A,,Clear,0,2012-11-03 08:15:00
4:34 AM,29.7,28.0,94,30.13,10.0,Calm,Calm,-,N/A,,Clear,0,2012-11-03 08:34:00
4:55 AM,29.8,28.4,94,30.13,10.0,North,4.6,-,N/A,,Clear,350,2012-11-03 08:55:00
5:14 AM,30.0,28.9,96,30.13,10.0,North,4.6,-,N/A,,Clear,360,2012-11-03 09:14:00
5:34 AM,30.2,28.9,95,30.14,10.0,North,3.5,-,N/A,,Clear,350,2012-11-03 09:34:00
5:55 AM,29.7,28.4,95,30.14,10.0,Calm,Calm,-,N/A,,Clear,0,2012-11-03 09:55:00
6:14 AM,27.5,26.4,96,30.14,10.0,Calm,Calm,-,N/A,,Clear,0,2012-11-03 10:14:00
6:34 AM,28.4,27.5,96,30.15,10.0,Calm,Calm,-,N/A,,Clear,0,2012-11-03 10:34:00
6:55 AM,29.5,28.4,96,30.14,10.0,NNE,5.8,-,N/A,,Clear,20,2012-11-03 10:55:00
7:14 AM,30.2,29.1,96,30.14,10.0,NNE,4.6,-,N/A,,Clear,20,2012-11-03 11:14:00
7:34 AM,30.6,29.3,95,30.14,10.0,North,5.8,-,N/A,,Clear,10,2012-11-03 11:34:00
7:55 AM,29.7,28.2,94,30.14,10.0,North,5.8,-,N/A,,Clear,360,2012-11-03 11:55:00
8:14 AM,30.2,28.9,95,30.14,10.0,NNE,5.8,-,N/A,,Clear,20,2012-11-03 12:14:00
8:35 AM,30.7,28.8,92,30.16,10.0,North,3.5,-,N/A,,Clear,360,2012-11-03 12:35:00
8:55 AM,30.9,29.3,94,30.16,10.0,Calm,Calm,-,N/A,,Clear,0,2012-11-03 12:55:00
9:14 AM,31.5,29.3,92,30.17,10.0,North,-9999.0,-,N/A,,Clear,0,2012-11-03 13:14:00
9:35 AM,32.2,30.4,93,30.18,10.0,North,3.5,-,N/A,,Clear,360,2012-11-03 13:35:00
9:54 AM,33.6,30.9,90,30.18,10.0,North,3.5,-,N/A,,Clear,360,2012-11-03 13:54:00
10:14 AM,34.7,31.1,87,30.18,10.0,NNE,5.8,-,N/A,,Clear,30,2012-11-03 14:14:00
10:54 AM,35.1,30.0,82,30.18,10.0,NE,6.9,-,N/A,,Scattered Clouds,40,2012-11-03 14:54:00
11:14 AM,35.4,30.0,81,30.18,10.0,North,5.8,-,N/A,,Mostly Cloudy,360,2012-11-03 15:14:00
11:35 AM,36.0,29.8,78,30.19,10.0,NNE,3.5,-,N/A,,Mostly Cloudy,30,2012-11-03 15:35:00
11:54 AM,36.3,30.0,78,30.20,10.0,Calm,Calm,-,N/A,,Overcast,0,2012-11-03 15:54:00
12:14 PM,37.0,30.4,77,30.20,10.0,Calm,Calm,-,N/A,,Overcast,0,2012-11-03 16:14:00
12:35 PM,37.4,30.2,75,30.18,10.0,NNW,6.9,-,N/A,,Overcast,330,2012-11-03 16:35:00
12:54 PM,37.4,30.0,75,30.18,10.0,NNE,3.5,-,N/A,,Overcast,30,2012-11-03 16:54:00
1:14 PM,38.1,30.6,74,30.19,10.0,NW,6.9,-,N/A,,Overcast,310,2012-11-03 17:14:00
1:35 PM,38.3,30.4,73,30.18,10.0,NNW,5.8,-,N/A,,Overcast,340,2012-11-03 17:35:00
1:54 PM,37.9,30.4,74,30.16,10.0,North,4.6,-,N/A,,Overcast,360,2012-11-03 17:54:00
2:15 PM,37.6,30.7,76,30.17,10.0,NW,5.8,-,N/A,,Overcast,320,2012-11-03 18:15:00
2:35 PM,37.2,30.2,76,30.16,10.0,North,8.1,-,N/A,,Overcast,10,2012-11-03 18:35:00
2:54 PM,37.2,30.0,75,30.16,10.0,Calm,Calm,-,N/A,,Overcast,0,2012-11-03 18:54:00
3:15 PM,38.1,30.2,73,30.16,10.0,North,3.5,-,N/A,,Mostly Cloudy,360,2012-11-03 19:15:00
3:34 PM,37.9,30.4,74,30.15,10.0,NNE,3.5,-,N/A,,Overcast,20,2012-11-03 19:34:00
3:54 PM,39.0,30.2,71,30.15,10.0,NW,4.6,-,N/A,,Overcast,320,2012-11-03 19:54:00
4:15 PM,40.8,30.6,67,30.15,10.0,NW,3.5,-,N/A,,Overcast,320,2012-11-03 20:15:00
4:34 PM,37.6,29.3,72,30.15,10.0,North,3.5,-,N/A,,Mostly Cloudy,360,2012-11-03 20:34:00
4:54 PM,38.8,29.5,69,30.15,10.0,Calm,Calm,-,N/A,,Mostly Cloudy,0,2012-11-03 20:54:00
5:15 PM,38.3,29.5,71,30.15,10.0,NNW,4.6,-,N/A,,Overcast,340,2012-11-03 21:15:00
5:34 PM,38.3,29.3,70,30.15,10.0,North,5.8,-,N/A,,Overcast,10,2012-11-03 21:34:00
5:54 PM,38.1,29.3,71,30.15,10.0,North,5.8,-,N/A,,Mostly Cloudy,10,2012-11-03 21:54:00
6:15 PM,37.8,28.8,70,30.15,10.0,North,5.8,-,N/A,,Overcast,10,2012-11-03 22:15:00
6:34 PM,36.5,28.8,74,30.14,10.0,NNE,8.1,-,N/A,,Scattered Clouds,20,2012-11-03 22:34:00
6:55 PM,35.8,28.6,75,30.16,10.0,North,5.8,-,N/A,,Mostly Cloudy,10,2012-11-03 22:55:00
7:15 PM,34.9,28.4,77,30.16,10.0,NNE,3.5,-,N/A,,Mostly Cloudy,30,2012-11-03 23:15:00
7:34 PM,35.6,28.6,76,30.16,10.0,NNE,3.5,-,N/A,,Mostly Cloudy,30,2012-11-03 23:34:00
7:55 PM,34.5,28.6,79,30.16,10.0,North,3.5,-,N/A,,Overcast,350,2012-11-03 23:55:00
8:14 PM,34.0,28.2,79,30.16,10.0,North,3.5,-,N/A,,Scattered Clouds,350,2012-11-04 00:14:00
8:34 PM,33.4,28.2,81,30.16,10.0,North,3.5,-,N/A,,Scattered Clouds,360,2012-11-04 00:34:00
8:55 PM,33.3,28.2,82,30.16,10.0,North,3.5,-,N/A,,Scattered Clouds,10,2012-11-04 00:55:00
9:14 PM,32.7,27.5,81,30.16,10.0,North,3.5,-,N/A,,Clear,350,2012-11-04 01:14:00
9:34 PM,32.2,27.5,83,30.16,10.0,North,3.5,-,N/A,,Clear,360,2012-11-04 01:34:00
9:55 PM,31.8,27.5,84,30.17,10.0,NNW,3.5,-,N/A,,Clear,340,2012-11-04 01:55:00
10:14 PM,32.0,27.3,83,30.17,10.0,North,3.5,-,N/A,,Scattered Clouds,10,2012-11-04 02:14:00
10:35 PM,32.2,28.0,85,30.17,10.0,NNE,3.5,-,N/A,,Overcast,30,2012-11-04 02:35:00
10:54 PM,32.9,28.4,84,30.17,10.0,Calm,Calm,-,N/A,,Overcast,0,2012-11-04 02:54:00
11:15 PM,33.8,29.3,84,30.16,10.0,Calm,Calm,-,N/A,,Overcast,0,2012-11-04 03:15:00
11:35 PM,32.9,28.8,85,30.17,10.0,Calm,Calm,-,N/A,,Overcast,0,2012-11-04 03:35:00
11:54 PM,32.7,28.6,85,30.17,10.0,Calm,Calm,-,N/A,,Overcast,0,2012-11-04 03:54:00